Flag for Norway Weather past 2 weeks in Søgne, Norway

Now
38 °F

Chilly.


Feels Like: 33 °F
Forecast: 32 / 41 °F
Wind: 6 mph from Northwest

Location: Oksoy Fyr

Current Time: Jan 26, 2015 at 10:15:47 PM

Latest Report: Jan 26, 2015 at 9:00 PM


Visibility: N/A

Pressure: 29.73 "Hg

Humidity: 85%

Dew point: 34 °F

Location of SøgneLocation

Historic Weather in Søgne — Graph

°F

Søgne temperature yesterday

Maximum temperature yesterday: 42 °F (at 11:00 PM)
Minimum temperature yesterday: 30 °F (at 10:00 AM)
Average temperature yesterday: 36 °F

Past Weeks' High & Low Weather Summary

 TemperatureHumidityPressure
High47 °F (Jan 12, 2:00 PM)98% (Jan 20, 3:00 AM)30.26 "Hg (Jan 20, 3:00 AM)
Low24 °F (Jan 23, 6:00 AM)61% (Jan 16, 9:00 PM)28.82 "Hg (Jan 16, 5:00 AM)
Average38 °F86%29.67 "Hg
* Reported Jan 11 9:00 PM — Jan 26 9:00 PM, Søgne, Weather by CustomWeather, © 2014

Note: Actual official high and low records may vary slightly from our data, if they occured in-between our weather recording intervals... More about our weather records

Advertising

Søgne weather history for previous 24 hours

 ConditionsComfort  
Time TempWeatherWind HumidityBarometerVisibility
9:00 PM
Jan 26
38 °FChilly.6 mph85%29.73 "HgN/A
8:00 PM38 °FChilly.5 mph88%29.74 "HgN/A
7:00 PM38 °FChilly.6 mph89%29.72 "HgN/A
6:00 PM38 °FChilly.5 mph88%29.71 "HgN/A
5:00 PM40 °FChilly.6 mph86%29.70 "HgN/A
4:00 PM40 °FQuite cool.6 mph90%29.70 "HgN/A
3:00 PM41 °FQuite cool.3 mph89%29.69 "HgN/A
2:00 PM42 °FQuite cool.5 mph94%29.70 "HgN/A
1:00 PM42 °FQuite cool.6 mph96%29.71 "HgN/A
12:00 PM42 °FQuite cool.5 mph96%29.72 "HgN/A
11:00 AM42 °FQuite cool.6 mph97%29.73 "HgN/A
10:00 AM43 °FQuite cool.6 mph97%29.74 "HgN/A
9:00 AM43 °FQuite cool.5 mph97%29.75 "HgN/A
8:00 AM44 °FQuite cool.8 mph97%29.77 "HgN/A
7:00 AM44 °FQuite cool.10 mph97%29.78 "HgN/A
6:00 AM44 °FQuite cool.8 mph97%29.79 "HgN/A
5:00 AM43 °FQuite cool.10 mph97%29.82 "HgN/A
4:00 AM43 °FQuite cool.12 mph97%29.86 "HgN/A
3:00 AM42 °FQuite cool.10 mph96%29.90 "HgN/A
2:00 AM42 °FQuite cool.10 mph96%29.93 "HgN/A
1:00 AM42 °FQuite cool.8 mph95%29.97 "HgN/A
12:00 AM43 °FQuite cool.7 mph93%30.01 "HgN/A
11:00 PM
Jan 25
42 °FQuite cool.10 mph93%30.03 "HgN/A
10:00 PM42 °FQuite cool.9 mph93%30.06 "HgN/A
Weather by CustomWeather, © 2014

See weather overviewHow to use our weather pages